Caribou, ME

12:06 PM EST on February 27, 2017 (GMT -0500)
Caribou Municipal

Weather History for KCAR - August, 2013

Change the Weather History Date:

Wednesday, August 7, 2013

  Actual Average Record
Temperature  
Mean Temperature 65 °F 65 °F  
Max Temperature 79 °F 76 °F 89 °F (1947)
Min Temperature 50 °F 55 °F 40 °F (1976)
Degree Days  
Heating Degree Days 0 2  
Month to date heating degree days 19 14  
Since 1 June heating degree days 225 237  
Since 1 July heating degree days 47 72  
Cooling Degree Days 0 2  
Month to date cooling degree days 3 15  
Year to date cooling degree days 153 131  
Since 1 June cooling degree days 145 126  
Growing Degree Days 14 (Base 50)    
Moisture  
Dew Point 54 °F    
Average Humidity 72    
Maximum Humidity 100    
Minimum Humidity 43    
Precipitation  
Precipitation 0.00 in 0.13 in 1.41 in (1955)
Month to date precipitation 2.32 0.92  
Year to date precipitation 29.67 21.90  
Snow  
Snow 0.00 in 0.00 in 0.00 in (2002)
Month to date snowfall 0.0 0.0  
Since 1 June snowfall 0.0 0.0  
Since 1 July snowfall 0.0 0.0  
Snow Depth 0.00 in    
Sea Level Pressure  
Sea Level Pressure 30.14 in    
Wind  
Wind Speed 2 mph (South)    
Max Wind Speed 10 mph    
Max Gust Speed 13 mph    
Visibility 8 miles    
Events Fog    
T = Trace of Precipitation, MM = Missing Value Source: NWS Daily Summary

Daily Weather History Graph

Daily Weather History Graph

Search for Another Location

Airport or City:

Trip Planner

Search our weather history database for the weather conditions in past years. The results will help you decide how hot, cold, wet, or windy it might be!

Date:

Astronomy

Aug. 07, 2013 Rise Set
Actual Time 5:19 AM EDT 7:55 PM EDT
Civil Twilight 4:45 AM EDT 8:29 PM EDT
Nautical Twilight 4:01 AM EDT 9:12 PM EDT
Astronomical Twilight 3:11 AM EDT 10:02 PM EDT
Moon 6:11 AM EDT (8/7) 7:51 PM EDT (8/7)
Length of Visible Light 15h 44m
Length of Day
14h 35m
New Moon, 1% of the Moon is Illuminated
Aug 7
New Moon
Aug 14
First Quarter
Aug 20
Full
Aug 28
Last Quarter
Sep 5
New

Hourly Weather History & Observations

Time (EDT) Temp. Dew Point Humidity Pressure Visibility Wind Dir Wind Speed Gust Speed Precip Events Conditions
12:54 AM 57.0 °F 54.0 °F 89% 30.12 in 10.0 mi Calm Calm - N/A   Clear
1:54 AM 55.9 °F 54.0 °F 93% 30.13 in 10.0 mi Calm Calm - N/A   Clear
2:54 AM 54.0 °F 53.1 °F 97% 30.14 in 8.0 mi Calm Calm - N/A   Clear
3:36 AM 53.6 °F 51.8 °F 94% 30.13 in 1.8 mi Calm Calm - N/A   Partly Cloudy
3:39 AM 51.8 °F 51.8 °F 100% 30.13 in 1.0 mi SSW 3.5 mph - N/A   Mist
3:46 AM 51.8 °F 51.8 °F 100% 30.13 in 0.2 mi Calm Calm - N/A Fog Fog
3:54 AM 52.0 °F 51.1 °F 97% 30.15 in 0.5 mi Calm Calm - N/A Fog Fog
3:58 AM 51.8 °F 51.8 °F 100% 30.14 in 1.5 mi Calm Calm - N/A   Scattered Clouds
4:03 AM 53.6 °F 51.8 °F 94% 30.14 in 3.0 mi Calm Calm - N/A   Scattered Clouds
4:10 AM 53.6 °F 51.8 °F 94% 30.14 in 2.5 mi West 3.5 mph - N/A   Partly Cloudy
4:20 AM 51.8 °F 51.8 °F 100% 30.14 in 10.0 mi WSW 4.6 mph - N/A   Clear
4:54 AM 50.0 °F 50.0 °F 100% 30.16 in 10.0 mi SSW 3.5 mph - N/A   Clear
5:54 AM 51.1 °F 50.0 °F 96% 30.17 in 10.0 mi Calm Calm - N/A   Clear
6:54 AM 55.9 °F 53.1 °F 90% 30.18 in 10.0 mi Calm Calm - N/A   Clear
7:54 AM 60.1 °F 55.9 °F 86% 30.19 in 10.0 mi Calm Calm - N/A   Clear
8:54 AM 64.0 °F 57.9 °F 80% 30.18 in 10.0 mi Calm Calm - N/A   Clear
9:54 AM 70.0 °F 59.0 °F 68% 30.17 in 10.0 mi Variable 3.5 mph - N/A   Clear
10:54 AM 73.0 °F 57.0 °F 57% 30.17 in 10.0 mi Variable 3.5 mph - N/A   Clear
11:54 AM 75.9 °F 57.0 °F 52% 30.16 in 10.0 mi Calm Calm - N/A   Clear
12:54 PM 75.9 °F 54.0 °F 46% 30.15 in 10.0 mi ESE 5.8 mph - N/A   Partly Cloudy
1:54 PM 77.0 °F 53.1 °F 43% 30.14 in 10.0 mi South 6.9 mph - N/A   Partly Cloudy
2:54 PM 78.1 °F 55.0 °F 45% 30.13 in 10.0 mi Variable 4.6 mph - N/A   Overcast
3:54 PM 75.0 °F 55.0 °F 50% 30.13 in 10.0 mi SSE 5.8 mph - N/A   Mostly Cloudy
4:54 PM 75.0 °F 57.9 °F 55% 30.12 in 10.0 mi Calm Calm - N/A   Overcast
5:54 PM 75.9 °F 57.9 °F 54% 30.10 in 10.0 mi South 4.6 mph - N/A   Overcast
6:54 PM 73.9 °F 55.9 °F 53% 30.09 in 10.0 mi South 4.6 mph - N/A   Partly Cloudy
7:54 PM 70.0 °F 55.0 °F 59% 30.09 in 10.0 mi South 5.8 mph - N/A   Clear
8:54 PM 64.9 °F 55.0 °F 70% 30.09 in 10.0 mi Calm Calm - N/A   Clear
9:54 PM 64.0 °F 54.0 °F 70% 30.10 in 10.0 mi SSE 3.5 mph - N/A   Clear
10:54 PM 61.0 °F 53.1 °F 75% 30.09 in 10.0 mi Calm Calm - N/A   Clear
11:54 PM 60.1 °F 53.1 °F 78% 30.10 in 10.0 mi Calm Calm - N/A   Clear